Printer-friendly version

IAU Minor Planet Center

Minor Planet Center

MPEC 2004-N31 : 2002 GX32 = 1994 JV

The following Minor Planet Electronic Circular may be linked-to from your own Web pages, but must not otherwise be redistributed electronically.


Read MPEC 2004-N30 Read MPEC 2004-N32


M.P.E.C. 2004-N31                                Issued 2004 July 12, 14:48 UT

     The Minor Planet Electronic Circulars contain information on unusual
         minor planets and routine data on comets.  They are published
   on behalf of Commission 20 of the International Astronomical Union by the
          Minor Planet Center, Smithsonian Astrophysical Observatory,
                          Cambridge, MA 02138, U.S.A.

         Supported in part by the Steven and Michele Kirsch Foundation
             Prepared using the Tamkin Foundation Computer Network

                              MPC@CFA.HARVARD.EDU
          URL http://cfa-www.harvard.edu/iau/mpc.html  ISSN 1523-6714

                              2002 GX32 = 1994 JV

                      Revision to MPEC 2003-N17, 1994-L03

2002 GX32 = 1994 JV
Id. L. H. Wasserman
Epoch 2004 July 14.0 TT = JDT 2453200.5                 MPC
M   7.01455              (2000.0)            P               Q
n   0.00252261     Peri.  185.66778     -0.83233000     +0.54254699
a  53.4444863      Node    28.13451     -0.49862381     -0.64351645
e   0.3807399      Incl.   13.92079     -0.24207657     -0.53993458
P 391              H    7.3           G   0.15           U   3
Residuals in seconds of arc
940513 807  0.6+  0.1+    940607 568  0.2+  0.0     020617 695  0.1-  0.0
940513 807  0.3+  0.2+    940607 568  0.2+  0.0     020617 695  0.4-  0.3+
940513 807  0.1-  0.0     940607 568  0.2+  0.1-    030530 807  0.1-  0.1-
940514 807  0.2+  0.3-    940607 568  0.3+  0.2-    030530 807  0.3+  0.0
940514 807  0.3+  0.3-    020408 807  0.1-  0.1-    030531 807  0.1+  0.4-
940514 807  0.2-  0.2+    020409 807  0.1+  0.3-    040609 568  0.0   0.5+
940514 807  1.6-  0.5+    020409 807  0.0   0.4-    040609 568  0.2+  0.5+

Ephemeris:
2002 GX32                a,e,i = 53.44, 0.38, 14                 q = 33.096
Date    TT    R. A. (2000) Decl.     Delta      r     Elong.  Phase     V
2004 07 04    14 57.85   -22 28.7   32.878   33.486   126.0     1.4    22.7
2004 07 14    14 57.47   -22 26.5   33.024   33.489   116.5     1.6    22.7
2004 07 24    14 57.28   -22 25.0   33.182   33.492   106.9     1.7    22.7
2004 08 03    14 57.29   -22 24.2   33.349   33.495    97.4     1.7    22.8
2004 08 13    14 57.50   -22 24.2   33.519   33.498    87.9     1.7    22.8
2004 08 23    14 57.92   -22 25.1   33.689   33.500    78.4     1.7    22.8
2004 09 02    14 58.52   -22 26.9   33.852   33.503    68.9     1.6    22.8
2004 09 12    14 59.31   -22 29.4   34.006   33.506    59.5     1.5    22.8
2004 09 22    15 00.27   -22 32.8   34.145   33.509    50.0     1.3    22.8
2004 10 02    15 01.37   -22 37.0   34.266   33.512    40.5     1.1    22.8
2004 10 12    15 02.59   -22 41.8   34.365   33.515    31.1     0.9    22.7

     The Neptune 3:7 mean-motion resonance keeps the object more than 11 AU
from Neptune over a 14 000-year period.

Brian G. Marsden             (C) Copyright 2004 MPC           M.P.E.C. 2004-N31

Read MPEC 2004-N30 Read MPEC 2004-N32


Our Web policy. Index to the CBAT/MPC/ICQ pages.


Valid HTML 4.01!